Location: Newark
(49.8969°N, 3.3422°E)
Time: 14:30:14
(UTC+00:00)

S-56A Canister/Altair - Visible Passes

Search period start: 23 January 2020 00:00
Search period end: 02 February 2020 00:00
Orbit: 634 x 2498 km, 38.9° (Epoch: 22 January)

Date Brightness Start Highest point End Pass type
(mag) Time Alt. Az. Time Alt. Az. Time Alt. Az.
24 Jan 10.0 19:15:41 10° S 19:16:41 11° S 19:16:41 11° S visible
25 Jan 9.9 18:43:07 10° S 18:45:21 12° SSE 18:45:59 12° SSE visible
26 Jan 10.0 18:10:34 10° S 18:12:43 11° SSE 18:14:40 10° SE visible
26 Jan 10.1 20:11:06 10° SW 20:12:41 15° SSW 20:12:41 15° SSW visible
27 Jan 10.2 17:38:05 10° SSE 17:40:03 11° SSE 17:41:53 10° SE visible
27 Jan 9.6 19:38:09 10° SW 19:41:55 21° S 19:41:55 21° S visible
28 Jan 10.4 17:05:43 10° SSE 17:07:22 11° SSE 17:08:56 10° SE visible
28 Jan 9.4 19:05:08 10° SW 19:10:40 22° SSE 19:11:09 22° SSE visible
29 Jan 9.4 18:32:05 10° SSW 18:38:01 23° SSE 18:40:21 19° SE visible
29 Jan 10.0 20:35:46 10° WSW 20:37:47 17° SW 20:37:47 17° SW visible
30 Jan 9.7 17:58:59 10° SSW 18:05:21 23° SSE 18:09:32 13° ESE visible
30 Jan 9.5 20:02:38 10° WSW 20:06:58 26° SSW 20:06:58 26° SSW visible
31 Jan 9.9 17:25:51 10° SSW 17:32:37 23° SSE 17:37:47 10° ESE visible
31 Jan 9.1 19:29:27 10° WSW 19:36:01 30° S 19:36:09 30° S visible
01 Feb 9.1 18:56:12 10° SW 19:03:23 32° S 19:05:18 27° SSE visible
01 Feb 10.3 21:01:10 10° WSW 21:02:45 15° WSW 21:02:45 15° WSW visible
